Location: Hartford
(41.7640°N, 72.6860°W)
Time: 04:22:46
(UTC-04:00)

Amateur Radio Satellites - All Passes

Search period start: 27 May 2016 03:52
Search period end: 28 May 2016 03:52
Location: Hartford, 41.7640°N, 72.6860°W

Satellite Date Start Highest point End Downlink Frequencies (MHz)
Time Altitude Azimuth
ISS 27 May 03:58:27 04:01:42 63° 33° (NNE) 04:04:56 145.825
Cosmos 2491 27 May 04:08:47 04:17:25 62° 92° (E) 04:26:04 435.465 / 435.565
STARS 27 May 04:12:47 04:17:12 89° 249° (WSW) 04:21:38 437.465
JAS-2 27 May 04:13:17 04:16:16 13° 311° (NW) 04:19:10 435.910
Gurwin Techsat 1B 27 May 04:38:12 04:41:29 17° 299° (WNW) 04:44:46 435.225
Cosmos 2504 27 May 04:44:38 04:52:58 61° 78° (ENE) 05:01:39 435.465 / 435.565
HORYU 2 27 May 04:52:56 04:56:28 23° 95° (E) 04:59:58 437.375
ITAMSAT 1 27 May 05:00:46 05:04:53 24° 296° (WNW) 05:09:00 435.822/435.867
CUBESAT XI-V 27 May 05:07:38 05:12:10 53° 73° (ENE) 05:16:46 437.345
AO-85 27 May 05:09:00 05:12:14 16° 108° (ESE) 05:15:27 145.980
YUBILEINY 27 May 05:11:55 05:19:18 32° 276° (W) 05:26:43 435.215
KKS-1 27 May 05:15:08 05:16:23 11° 270° (W) 05:17:38 437.445
MOZHAYETS 4 27 May 05:24:29 05:26:31 13° 270° (W) 05:28:35
ISS 27 May 05:35:50 05:37:48 15° 229° (SW) 05:39:46 145.825
AO-7 27 May 05:36:00 05:44:10 60° 295° (WNW) 05:52:19 29.400- 29.500
RS-15 27 May 05:36:20 05:43:04 17° 264° (W) 05:49:48 29.354- 29.394
NOAA 18 27 May 05:38:38 05:40:20 11° 89° (E) 05:42:02 137.9125
NOAA 15 27 May 05:42:39 05:45:45 15° 91° (E) 05:48:48 137.62
Cubesat XI-IV 27 May 05:46:22 05:47:41 11° 88° (E) 05:49:00 437.490
Cosmos 2491 27 May 06:07:19 06:14:48 30° 292° (WNW) 06:22:21 435.465 / 435.565
STRAND 1 27 May 06:10:04 06:13:58 23° 64° (ENE) 06:17:53 437.568
LilacSat-2 27 May 06:22:59 06:25:47 19° 94° (E) 06:28:34 437.200
HORYU 2 27 May 06:29:05 06:33:04 33° 291° (WNW) 06:37:02 437.375
BRITE-PL 27 May 06:29:14 06:33:53 34° 95° (E) 06:38:11 437.365/2234.400
CUTE-I 27 May 06:30:05 06:34:46 30° 96° (E) 06:39:26 437.470
Cosmos 2504 27 May 06:38:51 06:45:49 30° 276° (W) 06:53:03 435.465 / 435.565
AO-85 27 May 06:46:42 06:52:10 77° 304° (WNW) 06:57:32 145.980
CUBESAT XI-V 27 May 06:47:03 06:49:53 16° 269° (W) 06:52:43 437.345
GOMX 1 27 May 06:57:33 07:01:36 28° 94° (E) 07:05:25 467.674
PRISM 27 May 07:06:22 07:08:00 12° 62° (ENE) 07:09:38 437.425
GONETS M04 27 May 07:10:47 07:14:22 13° 56° (NE) 07:17:57
NOAA 18 27 May 07:16:11 07:21:42 90° 286° (WNW) 07:27:11 137.9125
NOAA 15 27 May 07:20:42 07:25:59 67° 287° (WNW) 07:31:13 137.62
Cubesat XI-IV 27 May 07:23:04 07:28:27 90° 104° (ESE) 07:33:50 437.490
AO-7 27 May 07:31:16 07:35:14 14° 316° (NW) 07:39:12 29.400- 29.500
Cosmos 2499 27 May 07:33:29 07:33:57 10° 54° (NE) 07:34:25 435.465 / 435.565
HO-68 27 May 07:41:32 07:46:18 19° 90° (E) 07:51:03 435.675
STRAND 1 27 May 07:47:57 07:52:49 46° 261° (W) 07:57:44 437.568
DOVE 4 27 May 07:49:18 07:53:32 45° 98° (E) 07:57:34 437.250
AIST 1 27 May 07:49:28 07:53:03 24° 73° (ENE) 07:56:36
LilacSat-2 27 May 07:56:51 08:00:06 28° 290° (WNW) 08:03:21 437.200
BRITE-PL 27 May 08:07:53 08:12:13 28° 294° (WNW) 08:16:17 437.365/2234.400
CUTE-I 27 May 08:09:59 08:14:49 36° 292° (WNW) 08:19:40 437.470
SO-50 27 May 08:13:10 08:16:32 19° 40° (NE) 08:19:51 436.795
CINEMA 3 27 May 08:24:21 08:28:04 30° 96° (E) 08:31:43 145.822/145.860
AO-85 27 May 08:30:07 08:33:30 17° 323° (NW) 08:36:50 145.980
CANX-2 27 May 08:32:05 08:36:11 42° 98° (E) 08:40:15 2200.000
O/OREOS (USA 219) 27 May 08:35:19 08:36:59 12° 98° (E) 08:38:39 437.305
GOMX 1 27 May 08:35:38 08:39:38 28° 293° (WNW) 08:43:25 467.674
SEEDS 27 May 08:36:11 08:39:56 29° 96° (E) 08:43:40 437.485
PRISM 27 May 08:38:40 08:42:46 64° 258° (WSW) 08:46:56 437.425
NOAA 18 27 May 08:58:58 09:01:34 14° 303° (WNW) 09:04:09 137.9125
CUTE 1.7 + AOD 2 27 May 08:59:19 09:03:37 76° 102° (ESE) 09:07:53 437.475
Oscar 11 27 May 09:02:37 09:04:49 14° 91° (E) 09:06:59 145.826/435.025
AUBIESAT-1 27 May 09:03:50 09:07:09 72° 107° (ESE) 09:10:27 437.475
GONETS M04 27 May 09:04:31 09:13:11 65° 79° (E) 09:21:47
Cubesat XI-IV 27 May 09:05:19 09:07:45 13° 302° (WNW) 09:10:10 437.490
M-CUBED/EXP-1 PRIME 27 May 09:10:06 09:13:23 71° 290° (WNW) 09:16:37 437.505
ZACube-1 27 May 09:15:15 09:17:53 16° 92° (E) 09:20:33 437.345
CUBEBUG 2 27 May 09:17:23 09:21:15 36° 98° (E) 09:25:09 437.445
Cosmos 2499 27 May 09:20:53 09:29:14 53° 76° (ENE) 09:37:50 435.465 / 435.565
COMPASS 1 27 May 09:22:59 09:27:13 72° 102° (ESE) 09:31:26 437.405
AAUSAT CUBESAT 2 27 May 09:26:05 09:30:16 62° 101° (E) 09:34:24 437.432
AIST 1 27 May 09:26:56 09:30:37 27° 271° (W) 09:34:16
HO-68 27 May 09:27:33 09:34:45 80° 288° (WNW) 09:41:55 435.675
DOVE 4 27 May 09:28:03 09:30:51 17° 296° (WNW) 09:33:33 437.250
UNISAT 6 27 May 09:29:38 09:33:03 23° 67° (ENE) 09:36:26 437.425
TIGRISAT 27 May 09:37:10 09:40:45 25° 68° (ENE) 09:44:18 435.000
UWE-3 27 May 09:46:55 09:51:01 55° 100° (E) 09:55:10 435.000/436.395/437.385
PCSat 27 May 09:49:35 09:54:51 55° 114° (ESE) 10:00:10 145.827
FUNcube-1 27 May 09:52:36 09:56:32 39° 98° (E) 10:00:31 145.935
SO-50 27 May 09:52:51 09:57:31 68° 240° (WSW) 10:02:01 436.795
DELFI C3 27 May 10:00:46 10:04:14 27° 96° (E) 10:07:41 145.870
CINEMA 3 27 May 10:01:51 10:05:03 22° 293° (WNW) 10:08:13 145.822/145.860
CANX-2 27 May 10:08:50 10:11:42 18° 294° (WNW) 10:14:35 2200.000
ANTELSAT 27 May 10:09:50 10:14:08 60° 74° (ENE) 10:18:23 437.575/2403.000
O/OREOS (USA 219) 27 May 10:11:14 10:15:47 67° 294° (WNW) 10:20:19 437.305
SEEDS 27 May 10:12:04 10:15:30 24° 292° (WNW) 10:18:55 437.485
DUCHIFAT 1 27 May 10:19:44 10:21:45 13° 63° (ENE) 10:23:46 145.980
Oscar 11 27 May 10:37:01 10:41:16 54° 286° (WNW) 10:45:29 145.826/435.025
CUTE 1.7 + AOD 2 27 May 10:37:51 10:38:50 11° 298° (WNW) 10:39:49 437.475
BUGSAT 1 27 May 10:41:03 10:41:56 11° 62° (ENE) 10:42:50 437.445
CUSAT 1 27 May 10:47:23 10:52:04 22° 80° (E) 10:57:23 437.405
ZACube-1 27 May 10:50:25 10:54:22 42° 288° (WNW) 10:58:22 437.345
CUBEBUG 2 27 May 10:54:43 10:57:39 19° 293° (WNW) 11:00:34 437.445
JAS-2 27 May 10:55:08 10:59:11 16° 52° (NE) 11:03:20 435.910
POPSAT HIP 1 27 May 10:55:14 10:59:04 34° 70° (ENE) 11:02:54 437.405
QB50P1 27 May 10:55:39 10:59:30 35° 70° (ENE) 11:03:22 145.935-145.965
QB50P2 27 May 10:57:42 11:01:38 38° 71° (ENE) 11:05:35 145.880/145.840
POLYITAN 1 27 May 11:00:08 11:04:06 39° 71° (ENE) 11:08:03 437.675
COMPASS 1 27 May 11:01:03 11:02:10 11° 298° (WNW) 11:03:18 437.405
HUMSAT D 27 May 11:02:22 11:06:30 62° 101° (E) 11:10:39 437.325/437.525
GONETS M04 27 May 11:02:25 11:09:16 27° 279° (W) 11:16:06
AAUSAT CUBESAT 2 27 May 11:03:28 11:05:13 12° 297° (WNW) 11:06:59 437.432
UNISAT 6 27 May 11:05:40 11:09:36 32° 263° (W) 11:13:31 437.425
TIGRISAT 27 May 11:13:34 11:17:21 28° 264° (W) 11:21:06 435.000
NANOSAT C BR1 27 May 11:14:02 11:18:09 53° 73° (ENE) 11:22:16 145.865
Cosmos 2499 27 May 11:14:29 11:22:02 36° 275° (W) 11:29:49 435.465 / 435.565
HO-68 27 May 11:17:11 11:21:23 17° 307° (NW) 11:25:34 435.675
UWE-3 27 May 11:25:01 11:27:03 13° 296° (WNW) 11:29:06 435.000/436.395/437.385
FUNcube-1 27 May 11:29:40 11:32:31 18° 294° (WNW) 11:35:23 145.935
BEESAT 2 27 May 11:30:47 11:34:02 25° 113° (ESE) 11:37:18 435.950
PCSat 27 May 11:34:11 11:38:36 25° 313° (NW) 11:43:02 145.827
DELFI C3 27 May 11:35:44 11:38:59 24° 292° (WNW) 11:42:14 145.870
AISAT 27 May 11:36:13 11:39:19 18° 93° (E) 11:42:22 437.250
UKube-1 27 May 11:46:52 11:49:23 15° 92° (E) 11:51:52 .
ANTELSAT 27 May 11:49:34 11:51:13 12° 270° (W) 11:52:52 437.575/2403.000
DUCHIFAT 1 27 May 11:52:48 11:56:58 58° 259° (W) 12:01:08 145.980
BEESAT 3 27 May 12:05:32 12:09:28 76° 304° (NW) 12:13:26 437.485
ESTCUBE 1 27 May 12:11:45 12:16:17 65° 102° (ESE) 12:20:47 437.505/2401.250
BUGSAT 1 27 May 12:12:31 12:16:43 75° 257° (WSW) 12:20:55 437.445
DANDE 27 May 12:18:15 12:23:26 50° 91° (E) 12:30:12 436.750
50 SAT 27 May 12:19:30 12:23:12 62° 102° (ESE) 12:26:54 437.505
Oscar 19 27 May 12:20:14 12:24:12 23° 64° (ENE) 12:28:10 437.125/150
CUSAT 1 27 May 12:26:54 12:33:10 71° 282° (WNW) 12:40:54 437.405
CUBEBUG 1 27 May 12:29:34 12:33:58 70° 102° (ESE) 12:38:17 437.445
DX 1 27 May 12:31:29 12:35:47 58° 101° (E) 12:40:04 434.975-435.025
POPSAT HIP 1 27 May 12:31:45 12:34:55 20° 266° (W) 12:38:07 437.405
QB50P1 27 May 12:32:14 12:35:22 20° 266° (W) 12:38:31 145.935-145.965
QB50P2 27 May 12:34:39 12:37:35 18° 267° (W) 12:40:31 145.880/145.840
JAS-2 27 May 12:35:27 12:42:42 68° 71° (ENE) 12:50:30 435.910
VELOX 1 27 May 12:35:29 12:39:57 78° 103° (ESE) 12:44:21 145.980
POLYITAN 1 27 May 12:37:12 12:40:03 18° 267° (W) 12:42:55 437.675
HUMSAT D 27 May 12:39:57 12:41:37 12° 297° (WNW) 12:43:18 437.325/437.525
Gurwin Techsat 1B 27 May 12:41:08 12:44:10 16° 60° (ENE) 12:47:13 435.225
NANOSAT C BR1 27 May 12:52:12 12:54:12 13° 269° (W) 12:56:11 145.865
SPROUT 27 May 12:58:17 13:02:29 55° 100° (E) 13:06:38 437.525
AO-7 27 May 12:58:36 13:00:01 10° 40° (NE) 13:01:26 29.400- 29.500
BEESAT 2 27 May 13:08:12 13:11:45 31° 311° (NW) 13:15:20 435.950
AISAT 27 May 13:11:48 13:15:57 41° 289° (WNW) 13:20:04 437.250
UKube-1 27 May 13:21:31 13:25:42 48° 288° (WNW) 13:29:50 .
TISAT 1 27 May 13:24:05 13:27:42 28° 96° (E) 13:31:18 437.305
AIST 2 27 May 13:36:52 13:40:37 35° 115° (ESE) 13:44:24 435.215
AO-85 27 May 13:39:37 13:42:37 16° 37° (NE) 13:45:28 145.980
BEESAT 3 27 May 13:46:56 13:47:51 11° 323° (NW) 13:48:47 437.485
ESTCUBE 1 27 May 13:50:14 13:52:33 14° 298° (WNW) 13:54:51 437.505/2401.250
SWISSCUBE 27 May 13:57:36 14:00:16 15° 91° (E) 14:02:54 437.505
Oscar 19 27 May 13:58:11 14:03:11 48° 261° (W) 14:08:14 437.125/150
DANDE 27 May 14:01:56 14:06:45 27° 296° (WNW) 14:12:42 436.750
ITUPSAT 1 27 May 14:03:32 14:06:15 15° 91° (E) 14:08:58 437.325
CUBEBUG 1 27 May 14:07:58 14:09:39 12° 299° (WNW) 14:11:20 437.445
DX 1 27 May 14:09:11 14:11:29 14° 298° (WNW) 14:13:48 434.975-435.025
CUSAT 1 27 May 14:13:21 14:16:59 15° 305° (NW) 14:20:55 437.405
VELOX 1 27 May 14:14:25 14:15:46 11° 300° (WNW) 14:17:06 145.980
Gurwin Techsat 1B 27 May 14:18:10 14:23:28 75° 257° (WSW) 14:28:49 435.225
Cosmos 2491 27 May 14:19:16 14:26:48 31° 68° (ENE) 14:34:15 435.465 / 435.565
JAS-2 27 May 14:22:25 14:28:17 25° 271° (W) 14:34:30 435.910
BEESAT 27 May 14:26:18 14:30:17 26° 95° (E) 14:34:16 436.000
YUBILEINY 27 May 14:27:21 14:28:55 11° 72° (ENE) 14:30:29 435.215
SPROUT 27 May 14:35:46 14:37:57 14° 297° (WNW) 14:40:10 437.525
ITAMSAT 1 27 May 14:38:51 14:43:59 70° 73° (ENE) 14:49:09 435.822/435.867
AO-7 27 May 14:42:56 14:50:39 45° 62° (ENE) 14:58:25 29.400- 29.500
TISAT 1 27 May 14:59:52 15:03:14 24° 292° (WNW) 15:06:36 437.305
AIST 2 27 May 15:15:44 15:19:10 25° 313° (NW) 15:22:37 435.215
AO-85 27 May 15:19:07 15:23:49 82° 237° (WSW) 15:28:03 145.980
KKS-1 27 May 15:27:26 15:29:27 13° 91° (E) 15:31:26 437.445
SWISSCUBE 27 May 15:33:42 15:38:26 60° 287° (WNW) 15:43:09 437.505
RS-15 27 May 15:37:33 15:44:04 17° 96° (E) 15:50:44 29.354- 29.394
ITUPSAT 1 27 May 15:39:43 15:44:28 59° 287° (WNW) 15:49:11 437.325
MOZHAYETS 4 27 May 15:40:34 15:43:08 15° 91° (E) 15:45:41
HORYU 2 27 May 15:51:24 15:54:52 23° 66° (ENE) 15:58:19 437.375
STARS 27 May 16:03:10 16:05:52 16° 92° (E) 16:08:32 437.465
BEESAT 27 May 16:03:47 16:08:05 34° 292° (WNW) 16:12:23 436.000
YUBILEINY 27 May 16:15:18 16:23:49 64° 92° (E) 16:32:22 435.215
Cosmos 2491 27 May 16:15:36 16:24:09 60° 269° (W) 16:32:37 435.465 / 435.565
ITAMSAT 1 27 May 16:21:17 16:23:57 14° 270° (W) 16:26:39 435.822/435.867
AO-7 27 May 16:35:41 16:43:25 43° 261° (W) 16:51:14 29.400- 29.500
PCSat 27 May 16:56:53 16:57:36 10° 33° (NNE) 16:58:18 145.827
KKS-1 27 May 17:02:02 17:06:24 59° 287° (WNW) 17:10:44 437.445
NOAA 15 27 May 17:02:26 17:06:49 27° 65° (ENE) 17:11:13 137.62
NOAA 18 27 May 17:03:48 17:08:08 25° 63° (ENE) 17:12:29 137.9125
CUBESAT XI-V 27 May 17:05:39 17:07:54 13° 90° (E) 17:10:08 437.345
LilacSat-2 27 May 17:07:05 17:08:15 11° 64° (ENE) 17:09:26 437.200
Cubesat XI-IV 27 May 17:07:18 17:11:09 21° 62° (ENE) 17:15:00 437.490
MOZHAYETS 4 27 May 17:16:06 17:20:39 57° 286° (WNW) 17:25:10
Cosmos 2504 27 May 17:24:03 17:30:51 47° 89° (E) 17:38:00 435.465 / 435.565
HORYU 2 27 May 17:27:12 17:31:14 34° 262° (W) 17:35:16 437.375
STARS 27 May 17:38:17 17:42:28 46° 288° (WNW) 17:46:38 437.465
BRITE-PL 27 May 17:38:49 17:44:08 43° 70° (ENE) 17:49:29 437.365/2234.400
RS-15 27 May 17:42:59 17:54:14 76° 118° (ESE) 18:06:10 29.354- 29.394
CUTE-I 27 May 17:52:04 17:57:09 50° 71° (ENE) 18:02:18 437.470
GOMX 1 27 May 18:04:34 18:09:34 37° 69° (ENE) 18:14:28 467.674
HO-68 27 May 18:12:14 18:16:18 16° 52° (NE) 18:20:22 435.675
YUBILEINY 27 May 18:14:01 18:21:14 29° 293° (WNW) 18:28:30 435.215
M-CUBED/EXP-1 PRIME 27 May 18:24:12 18:26:16 14° 60° (ENE) 18:28:18 437.505
PCSat 27 May 18:37:08 18:42:24 47° 55° (NE) 18:47:37 145.827
LilacSat-2 27 May 18:38:22 18:42:06 55° 260° (W) 18:45:50 437.200
CUBESAT XI-V 27 May 18:41:01 18:45:43 64° 286° (WNW) 18:50:20 437.345
NOAA 15 27 May 18:41:24 18:46:23 40° 262° (W) 18:51:24 137.62
O/OREOS (USA 219) 27 May 18:42:15 18:45:59 25° 58° (ENE) 18:49:42 437.305
NOAA 18 27 May 18:43:16 18:48:30 46° 260° (W) 18:53:46 137.9125
Cubesat XI-IV 27 May 18:45:36 18:50:48 55° 260° (W) 18:56:02 437.490
DOVE 4 27 May 18:53:50 18:58:53 51° 73° (ENE) 19:03:46 437.250
BRITE-PL 27 May 19:17:54 19:22:40 28° 267° (W) 19:27:32 437.365/2234.400
Cosmos 2504 27 May 19:18:05 19:24:26 32° 290° (WNW) 19:31:08 435.465 / 435.565
CANX-2 27 May 19:25:12 19:28:54 31° 70° (ENE) 19:32:37 2200.000
CINEMA 3 27 May 19:25:48 19:30:00 32° 70° (ENE) 19:34:03 145.822/145.860
SEEDS 27 May 19:28:35 19:31:46 22° 67° (ENE) 19:34:59 437.485
CUTE-I 27 May 19:33:34 19:37:28 21° 267° (W) 19:41:25 437.470
GOMX 1 27 May 19:42:49 19:47:37 31° 265° (W) 19:52:22 467.674
BEESAT 2 27 May 19:48:24 19:51:21 19° 45° (NE) 19:54:17 435.950
AUBIESAT-1 27 May 19:49:41 19:53:50 82° 254° (WSW) 19:57:41 437.475
CUTE 1.7 + AOD 2 27 May 19:52:00 19:56:05 53° 74° (ENE) 20:00:12 437.475
HO-68 27 May 19:55:47 20:02:54 79° 72° (ENE) 20:10:04 435.675
M-CUBED/EXP-1 PRIME 27 May 19:56:22 20:00:31 55° 254° (WSW) 20:04:22 437.505
RS-15 27 May 19:57:16 20:07:52 39° 324° (NW) 20:19:02 29.354- 29.394
STRAND 1 27 May 19:57:49 20:02:54 59° 101° (E) 20:07:59 437.568
Oscar 11 27 May 19:58:46 20:00:17 12° 62° (ENE) 20:01:49 145.826/435.025
ZACube-1 27 May 20:12:12 20:14:24 14° 64° (ENE) 20:16:35 437.345
COMPASS 1 27 May 20:13:48 20:17:46 48° 73° (ENE) 20:21:47 437.405
GONETS M04 27 May 20:15:02 20:18:50 14° 74° (ENE) 20:22:37
CUBEBUG 2 27 May 20:15:43 20:19:37 33° 71° (ENE) 20:23:27 437.445
AAUSAT CUBESAT 2 27 May 20:16:27 20:20:19 41° 72° (ENE) 20:24:13 437.432
AIST 1 27 May 20:20:17 20:22:42 15° 85° (E) 20:25:08
PRISM 27 May 20:21:01 20:23:45 17° 93° (E) 20:26:27 437.425
PCSat 27 May 20:21:07 20:25:30 25° 252° (WSW) 20:29:50 145.827
O/OREOS (USA 219) 27 May 20:21:25 20:25:24 32° 256° (WSW) 20:29:22 437.305
BEESAT 3 27 May 20:22:35 20:26:32 65° 56° (NE) 20:30:26 437.485
DOVE 4 27 May 20:33:02 20:36:47 20° 268° (W) 20:40:27 437.250
ISS 27 May 20:39:13 20:41:17 16° 132° (SE) 20:43:21 145.825
UWE-3 27 May 20:44:02 20:48:09 45° 73° (ENE) 20:52:11 435.000/436.395/437.385
DELFI C3 27 May 20:47:47 20:50:23 17° 66° (ENE) 20:53:01 145.870
FUNcube-1 27 May 20:48:30 20:52:14 31° 70° (ENE) 20:55:56 145.935
CANX-2 27 May 21:01:29 21:04:47 22° 266° (W) 21:08:06 2200.000
CINEMA 3 27 May 21:03:11 21:07:08 26° 265° (W) 21:10:57 145.822/145.860
SEEDS 27 May 21:03:34 21:07:18 32° 264° (W) 21:11:04 437.485
DANDE 27 May 21:17:04 21:19:18 11° 51° (NE) 21:21:31 436.750
CUSAT 1 27 May 21:21:19 21:26:37 19° 59° (ENE) 21:31:25 437.405
BEESAT 2 27 May 21:25:35 21:29:25 45° 242° (WSW) 21:33:12 435.950
CUTE 1.7 + AOD 2 27 May 21:30:20 21:32:15 13° 270° (W) 21:34:11 437.475
Oscar 11 27 May 21:31:34 21:35:50 69° 259° (WSW) 21:40:09 145.826/435.025
STRAND 1 27 May 21:38:08 21:41:36 19° 298° (WNW) 21:45:04 437.568
ZACube-1 27 May 21:46:07 21:50:17 53° 260° (W) 21:54:23 437.345
HO-68 27 May 21:46:31 21:51:20 19° 269° (W) 21:56:10 435.675
COMPASS 1 27 May 21:51:26 21:53:37 14° 269° (W) 21:55:48 437.405
CUBEBUG 2 27 May 21:52:53 21:56:18 22° 266° (W) 21:59:38 437.445
AAUSAT CUBESAT 2 27 May 21:53:25 21:56:00 16° 268° (W) 21:58:36 437.432
HUMSAT D 27 May 21:53:52 21:57:43 42° 72° (ENE) 22:01:35 437.325/437.525
PRISM 27 May 21:55:18 21:59:13 40° 289° (WNW) 22:03:07 437.425
AIST 1 27 May 21:55:36 21:59:51 48° 282° (WNW) 22:04:08
AIST 2 27 May 21:57:50 22:01:26 27° 48° (NE) 22:04:59 435.215
Cosmos 2499 27 May 21:58:42 22:05:13 38° 86° (E) 22:12:10 435.465 / 435.565
PHONESAT 2.4 27 May 21:59:35 22:01:59 20° 154° (SSE) 22:04:24 2401.200-2431.200
BEESAT 3 27 May 22:02:39 22:03:40 11° 252° (WSW) 22:04:40 437.485
ANTELSAT 27 May 22:03:07 22:04:43 12° 90° (E) 22:06:18 437.575/2403.000
GONETS M04 27 May 22:05:16 22:14:01 74° 94° (E) 22:22:46
ISS 27 May 22:14:10 22:17:24 61° 328° (NNW) 22:20:39 145.825
RS-15 27 May 22:16:05 22:25:07 23° 358° (N) 22:34:23 29.354- 29.394
DELFI C3 27 May 22:21:16 22:24:58 37° 262° (W) 22:28:41 145.870
UWE-3 27 May 22:22:18 22:24:49 15° 268° (W) 22:27:21 435.000/436.395/437.385
FUNcube-1 27 May 22:25:17 22:28:32 21° 266° (W) 22:31:45 145.935
AISAT 27 May 22:34:05 22:37:10 18° 64° (ENE) 22:40:14 437.250
UKube-1 27 May 22:42:11 22:44:33 15° 62° (ENE) 22:46:55 .
DANDE 27 May 22:56:11 23:04:22 50° 73° (ENE) 23:11:47 436.750
UNISAT 6 27 May 22:56:22 23:00:31 46° 99° (E) 23:04:43 437.425
50 SAT 27 May 22:58:14 23:01:21 28° 70° (ENE) 23:04:32 437.505
CUSAT 1 27 May 23:02:08 23:10:00 89° 271° (W) 23:16:27 437.405
TIGRISAT 27 May 23:03:50 23:08:03 53° 100° (E) 23:12:18 435.000
ESTCUBE 1 27 May 23:11:14 23:15:40 60° 74° (ENE) 23:20:09 437.505/2401.250
CUBEBUG 1 27 May 23:25:22 23:29:43 59° 74° (ENE) 23:34:06 437.445
DX 1 27 May 23:26:56 23:31:11 51° 73° (ENE) 23:35:27 434.975-435.025
HUMSAT D 27 May 23:31:11 23:33:34 15° 268° (W) 23:35:56 437.325/437.525
VELOX 1 27 May 23:32:40 23:37:06 70° 74° (ENE) 23:41:33 145.980
PHONESAT 2.4 27 May 23:35:19 23:38:25 57° 170° (S) 23:41:31 2401.200-2431.200
AIST 2 27 May 23:36:14 23:39:54 31° 245° (WSW) 23:43:34 435.215
DUCHIFAT 1 27 May 23:37:19 23:40:29 21° 94° (E) 23:43:37 145.980
ANTELSAT 27 May 23:37:33 23:41:48 61° 286° (WNW) 23:46:06 437.575/2403.000
Cosmos 2499 27 May 23:51:29 23:58:14 40° 287° (WNW) 00:05:29 435.465 / 435.565
SPROUT 27 May 23:51:54 23:55:58 43° 72° (ENE) 00:00:03 437.525
ISS 27 May 23:52:02 23:54:21 18° 347° (NNW) 23:56:41 145.825
BUGSAT 1 27 May 23:55:32 23:57:48 15° 92° (E) 00:00:03 437.445
GONETS M04 28 May 00:04:51 00:11:42 25° 295° (WNW) 00:18:35
SO-50 28 May 00:06:53 00:11:23 38° 115° (ESE) 00:15:55 436.795
AISAT 28 May 00:09:01 00:13:18 45° 261° (W) 00:17:37 437.250
POPSAT HIP 1 28 May 00:14:56 00:19:05 61° 101° (E) 00:23:14 437.405
QB50P1 28 May 00:15:18 00:19:29 63° 101° (ESE) 00:23:38 145.935-145.965
UKube-1 28 May 00:15:52 00:20:07 56° 259° (W) 00:24:25 .
TISAT 1 28 May 00:16:12 00:19:32 23° 67° (ENE) 00:22:53 437.305
QB50P2 28 May 00:17:39 00:21:52 71° 102° (ESE) 00:26:03 145.880/145.840
POLYITAN 1 28 May 00:20:07 00:24:19 73° 101° (ESE) 00:28:30 437.675
RS-15 28 May 00:31:42 00:42:41 36° 33° (NNE) 00:53:43 29.354- 29.394
50 SAT 28 May 00:32:37 00:35:08 18° 266° (W) 00:37:40 437.505
NANOSAT C BR1 28 May 00:33:38 00:37:50 84° 285° (WNW) 00:42:01 145.865
UNISAT 6 28 May 00:34:10 00:36:54 17° 295° (WNW) 00:39:38 437.425
DANDE 28 May 00:39:25 00:46:59 39° 273° (W) 00:53:53 436.750
TIGRISAT 28 May 00:41:56 00:44:20 15° 296° (WNW) 00:46:43 435.000
CUSAT 1 28 May 00:46:25 00:50:43 16° 283° (WNW) 00:54:41 437.405
ESTCUBE 1 28 May 00:50:45 00:52:53 13° 270° (W) 00:55:00 437.505/2401.250
SWISSCUBE 28 May 01:04:19 01:07:34 19° 63° (ENE) 01:10:49 437.505
CUBEBUG 1 28 May 01:04:19 01:06:22 13° 270° (W) 01:08:26 437.445
DX 1 28 May 01:05:13 01:07:40 15° 268° (W) 01:10:08 434.975-435.025
ITUPSAT 1 28 May 01:10:32 01:13:50 19° 63° (ENE) 01:17:09 437.325
PHONESAT 2.4 28 May 01:11:57 01:15:04 65° 186° (S) 01:18:10 2401.200-2431.200
DUCHIFAT 1 28 May 01:12:30 01:16:14 32° 290° (WNW) 01:19:57 145.980
VELOX 1 28 May 01:12:48 01:14:02 11° 271° (W) 01:15:15 145.980
SPROUT 28 May 01:29:23 01:32:07 17° 268° (W) 01:34:53 437.525
BUGSAT 1 28 May 01:29:34 01:33:24 43° 288° (WNW) 01:37:12 437.445
ISS 28 May 01:29:41 01:31:44 15° 7° (N) 01:33:48 145.825
JAS-2 28 May 01:30:36 01:38:00 60° 99° (E) 01:44:34 435.910
BEESAT 28 May 01:32:54 01:37:04 31° 68° (ENE) 01:41:14 436.000
SO-50 28 May 01:47:35 01:51:57 31° 313° (NW) 01:56:18 436.795
TISAT 1 28 May 01:51:17 01:55:02 31° 263° (W) 01:58:48 437.305
POPSAT HIP 1 28 May 01:52:33 01:54:22 13° 297° (WNW) 01:56:10 437.405
QB50P1 28 May 01:53:02 01:54:44 12° 298° (WNW) 01:56:26 145.935-145.965
QB50P2 28 May 01:55:53 01:57:05 11° 299° (WNW) 01:58:17 145.880/145.840
POLYITAN 1 28 May 01:58:30 01:59:32 11° 299° (WNW) 02:00:34 437.675
Oscar 19 28 May 02:09:14 02:14:21 59° 101° (E) 02:19:24 437.125/150
YUBILEINY 28 May 02:25:22 02:32:59 32° 69° (ENE) 02:40:35 435.215
KKS-1 28 May 02:26:05 02:28:19 14° 62° (ENE) 02:30:34 437.445
Gurwin Techsat 1B 28 May 02:34:13 02:39:16 43° 99° (E) 02:44:17 435.225
SWISSCUBE 28 May 02:40:21 02:44:58 50° 260° (W) 02:49:37 437.505
MOZHAYETS 4 28 May 02:43:10 02:45:45 15° 63° (ENE) 02:48:21
RS-15 28 May 02:44:30 02:56:53 88° 239° (WSW) 03:09:12 29.354- 29.394
ITUPSAT 1 28 May 02:46:42 02:51:18 49° 260° (W) 02:55:56 437.325
AO-7 28 May 02:47:50 02:50:07 11° 86° (E) 02:52:24 29.400- 29.500
PHONESAT 2.4 28 May 02:48:52 02:51:34 26° 203° (SSW) 02:54:13 2401.200-2431.200
ITAMSAT 1 28 May 02:52:00 02:56:12 24° 94° (E) 03:00:23 435.822/435.867
STARS 28 May 03:00:26 03:03:08 16° 63° (ENE) 03:05:48 437.465
ISS 28 May 03:05:48 03:08:53 37° 27° (NNE) 03:11:56 145.825
BEESAT 28 May 03:10:44 03:14:49 28° 264° (W) 03:18:55 436.000
Cosmos 2504 28 May 03:15:40 03:21:26 20° 63° (ENE) 03:27:21 435.465 / 435.565
JAS-2 28 May 03:16:17 03:22:26 29° 300° (WNW) 03:28:06 435.910
Cosmos 2491 28 May 03:21:05 03:28:45 35° 84° (E) 03:36:24 435.465 / 435.565
